« Back
NWS Peachtree City, Ga » Text Product » GA Regional Weather Roundup


Printer-friendly Version
Current Version              Previous Versions:   1  2  3  4  5  6  7  8  9  

Regional Weather Roundup

053
ASUS42 KFFC 191403
RWRGA
WEATHER ROUNDUP FOR GEORGIA
NATIONAL WEATHER SERVICE PEACHTREE CITY GA
1000 AM EDT SAT APR 19 2014

NOTE: "FAIR" INDICATES FEW OR NO CLOUDS BELOW 12,000 FEET WITH NO
SIGNIFICANT WEATHER AND/OR OBSTRUCTIONS TO VISIBILITY.

* = USE WITH CAUTION. THE STATIONS MARKED WITH AN ASTERISK MAY NOT
REPORT WEATHER SUCH AS PRECIPITATION, FOG, OR THUNDER AND ARE NOT
QUALITY CONTROLLED BY NWS.

THE REMARK "TC" DENOTES TEMPERATURE READING IN DEGREES CELSIUS.

GAZ001>058-191500-
NORTH GEORGIA

CITY           SKY/WX    TMP DP  RH WIND       PRES   REMARKS
ATLANTA        LGT RAIN  55  53  93 N17G24    30.08S FOG
ATHENS         LGT RAIN  52  51  97 NE13G21   30.08R FOG
CHAMBLEE       CLOUDY    54  51  90 NE10G16   30.09S FOG
PEACHTREE CITY LGT RAIN  55  53  93 N6        30.08S FOG
ROME           CLOUDY    55  51  86 CALM      30.10F
WEST ATLANTA   CLOUDY    55  53  93 N8        30.09S
GAINESVILLE    CLOUDY    54  52  93 NE12      30.11S
CARTERSVILLE   CLOUDY    55  50  83 CALM      30.11F


CITY           SKY/WX    TMP DP  RH WIND       PRES   REMARKS
DALTON*        CLOUDY    59  46  63 N8        30.11F
LAWRENCEVILLE* LGT RAIN  54  48  82 NE12      30.08F FOG
MARIETTA       CLOUDY    56  55  95 N6        30.10S FOG
KENNESAW*      PTSUNNY   55  52  88 E6        30.12S
$$

GAZ059>098-102>109-191500-
CENTRAL GEORGIA

CITY           SKY/WX    TMP DP  RH WIND       PRES   REMARKS
AUGUSTA-BUSH   LGT RAIN  54  51  90 N10       30.03R FOG
AUGUSTA-DANIEL LGT RAIN  55  52  89 NE15      30.03R FOG
COLUMBUS       CLOUDY    57  51  80 NE10G16   30.04S
MACON          CLOUDY    53  52  96 N13       30.02S FOG
ROBINS AFB     CLOUDY    54  52  94 N8        30.02R


CITY           SKY/WX    TMP DP  RH WIND       PRES   REMARKS
LAGRANGE*      CLOUDY    57  54  91 NE8       30.07S
SYLVANIA*      CLOUDY    57  54  91 NE8       29.99R FOG
MILLEDGEVILLE* CLOUDY    55  55 100 NE3       30.04S
$$

GAZ099>101-110>166-191500-
SOUTH GEORGIA

CITY           SKY/WX    TMP DP  RH WIND       PRES   REMARKS
SAVANNAH       LGT RAIN  58  56  93 N7        29.96R FOG
VALDOSTA       LGT RAIN  59  54  83 VRB5      29.93R
ALMA           CLOUDY    56  53  90 N7        29.93S
ST SIMONS      LGT RAIN  65  65 100 NE12      29.90S FOG
FT STEWART     HVY RAIN  57  57 100 N7        29.93R FOG
ALBANY         CLOUDY    55  53  93 VRB6G18   30.01R FOG
HUNTER AFB     LGT RAIN  59  59 100 N7        29.93R FOG
MOODY AFB      LGT RAIN  55  55 100 N10       29.93R
BRUNSWICK      CLOUDY    63  63 100 N3        29.91S


CITY           SKY/WX    TMP DP  RH WIND       PRES   REMARKS
BAINBRIDGE*    CLOUDY    59  57  94 N9        29.99R FOG
MOULTRIE*      DRIZZLE   54  54 100 N7        29.96S
VIDALIA*       DRIZZLE   54  54 100 NE9       29.97S
DOUGLAS*       LGT RAIN  55  54  94 NE13      29.95S
$$



USA.gov is the U.S. government's official web portal to all federal, state and local government web resources and services.